2010 XB11

Initial reported observation by Mt. Lemmon Survey on 2010-12-02.
(Discoverer will be defined when the object is numbered. See this note on how discoverers are determined.)

Orbit

Orbit type: Atira
Near-Earth Object

Note: WebGL enabled browser required.

epoch2022-01-21.0
epoch JD2459600.5
perihelion date2021-12-03.56462
perihelion JD2459552.06462
argument of perihelion (°)202.49212
ascending node (°)96.31144
inclination (°)29.88574
eccentricity0.5338659
perihelion distance (AU)0.2880825
Tisserand w.r.t. Jupiter8.9
ΔV w.r.t. Earth (km/sec)17.3
semimajor axis (AU)0.6180250
mean anomaly (°)98.25566
mean daily motion (°/day)2.02859250
aphelion distance (AU)0.948
period (years)0.49
P-vector [x]0.43124436
P-vector [y]-0.73327611
P-vector [z]-0.52567523
Q-vector [x]0.75415765
Q-vector [y]0.61278254
Q-vector [z]-0.23610123
absolute magnitude19.73
phase slope0.15
uncertainty2
referenceMPO 703452
observations used56
oppositions5
arc length (days)4141
first opposition used2010
last opposition used2022
residual rms (arc-secs)0.45
perturbers coarse indicatorM-v
perturbers precise indicator003Ek
first observation date used2010-12-02.0
last observation date used2022-04-04.0
computer nameMPCLINUX
JD of orbit computation2457344.964208
perihelion JD uncertainty (days)2.7708E-04
argument of perihelion uncertainty (°)6.8157E-05
ascending node uncertainty (°)2.6076E-04
inclination uncertainty (°)2.8844E-04
eccentricity uncertainty 8.0063E-07
perihelion distance uncertainty (AU)4.9036E-07
Minimum Orbit Intersection Distances (in AU)
for orbit epoch: 2459600.5, reference: E2022-J09
Mercury0.13827
Venus0.10952
Earth0.09208
Mars0.68086
Jupiter4.24855
Saturn8.16741
Uranus17.6276
Neptune29.2453

Observations

56 total observations over interval: 2010 12 02.51763 – 2022 04 04.14188
These data are available for download (format description).

Date (UT) J2000 RA J2000 Dec Magn Location Ref
2010 12 02.51763 12 26 06.93 -00 14 52.9 20.9 V G96 – Mt. Lemmon Survey MPS 359401
2010 12 02.52321 12 26 07.90 -00 14 40.8 21.0 V G96 – Mt. Lemmon Survey MPS 359401
2010 12 02.52879 12 26 08.80 -00 14 29.1 21.3 V G96 – Mt. Lemmon Survey MPS 359401
2010 12 02.53447 12 26 09.67 -00 14 17.5 21.2 V G96 – Mt. Lemmon Survey MPS 359401
2010 12 02.54048 12 26 10.69 -00 14 04.5 21.5 V G96 – Mt. Lemmon Survey MPS 359401
2010 12 02.54105 12 26 10.84 -00 14 04.1 20.3 V G96 – Mt. Lemmon Survey MPS 359401
2010 12 02.54162 12 26 10.89 -00 14 01.5 21.9 V G96 – Mt. Lemmon Survey MPS 359401
2010 12 02.54221 12 26 10.99 -00 14 01.1 21.0 V G96 – Mt. Lemmon Survey MPS 359401
2010 12 03.46154 12 28 49.54 +00 18 19.6 20.6 R H01 – Magdalena Ridge Observatory, Socorro MPS 359401
2010 12 03.46996 12 28 50.98 +00 18 37.5 20.7 R H01 – Magdalena Ridge Observatory, Socorro MPS 359401
2010 12 03.47562 12 28 51.72 +00 18 48.7 20.2 R H36 – Sandlot Observatory, Scranton MPS 359401
2010 12 03.47901 12 28 52.53 +00 18 56.6 21.0 R H01 – Magdalena Ridge Observatory, Socorro MPS 359401
2010 12 03.48949 12 28 54.32 +00 19 18.8 20.4 R H01 – Magdalena Ridge Observatory, Socorro MPS 359401
2010 12 03.50558 12 28 56.84 +00 19 50.7 20.5 R H36 – Sandlot Observatory, Scranton MPS 359401
2010 12 05.51266 12 34 59.77 +01 31 31.2 20.4 R H01 – Magdalena Ridge Observatory, Socorro MPS 359401
2010 12 05.51912 12 35 00.94 +01 31 45.3 20.6 R H01 – Magdalena Ridge Observatory, Socorro MPS 359401
2010 12 05.52397 12 35 01.86 +01 31 55.9 20.6 V G96 – Mt. Lemmon Survey MPS 359401
2010 12 05.52680 12 35 02.31 +01 32 02.0 20.2 R H01 – Magdalena Ridge Observatory, Socorro MPS 359401
2010 12 05.52974 12 35 02.94 +01 32 08.4 20.6 V G96 – Mt. Lemmon Survey MPS 359401
2010 12 05.53561 12 35 03.98 +01 32 21.3 20.5 V G96 – Mt. Lemmon Survey MPS 359401
2010 12 05.53658 12 35 04.08 +01 32 23.2 20.3 R H01 – Magdalena Ridge Observatory, Socorro MPS 359401
2010 12 05.54144 12 35 05.02 +01 32 34.0 21.8 V G96 – Mt. Lemmon Survey MPS 359401
2010 12 08.478127 12 44 38.63 +03 20 04.1 20.9 V H21 – Astronomical Research Observatory, Westfield MPS 359401
2010 12 08.486884 12 44 40.37 +03 20 23.5 21.3 V H21 – Astronomical Research Observatory, Westfield MPS 359401
2010 12 08.495837 12 44 42.16 +03 20 43.7 20.9 V H21 – Astronomical Research Observatory, Westfield MPS 359402
2010 12 08.51153 12 44 45.62 +03 21 22.1   291 – LPL/Spacewatch II MPS 359402
2010 12 08.51551 12 44 46.45 +03 21 30.5 21.2 V 291 – LPL/Spacewatch II MPS 359402
2010 12 08.51921 12 44 47.18 +03 21 38.7 20.9 V 291 – LPL/Spacewatch II MPS 359402
2010 12 12.52338 12 59 15.62 +05 54 01.6   291 – LPL/Spacewatch II MPS 359402
2010 12 12.52733 12 59 16.49 +05 54 11.0   291 – LPL/Spacewatch II MPS 359402
2010 12 12.53106 12 59 17.36 +05 54 18.9 21.2 V 291 – LPL/Spacewatch II MPS 359402
2010 12 24.51070 13 53 46.36 +14 07 08.9 20.5 V 291 – LPL/Spacewatch II MPS 362860
2010 12 24.51560 13 53 47.90 +14 07 22.4 20.9 V 291 – LPL/Spacewatch II MPS 362860
2010 12 24.52052 13 53 49.34 +14 07 34.1 20.4 V 291 – LPL/Spacewatch II MPS 362860
2010 12 26.545910 14 04 54.076 +15 34 08.88 20.9 G G96 – Mt. Lemmon Survey MPS 1460773
2011 11 23.490239 11 57 29.988 +02 52 47.63 20.1 G G96 – Mt. Lemmon Survey MPS 1460773
2011 11 26.513805 12 06 35.229 +03 55 52.91 20.5 G G96 – Mt. Lemmon Survey MPS 1460773
2012 11 26.503398 12 17 29.319 +07 59 30.93 21.8 G G96 – Mt. Lemmon Survey MPS 1460773
2015 11 16.642623 12 24 38.889 +10 30 21.87 21.8 R 568 – Maunakea MPS 650665
2015 11 16.643917 12 24 39.206 +10 30 21.44 21.8 R 568 – Maunakea MPS 650665
2015 11 16.645244 12 24 39.530 +10 30 21.02 21.7 R 568 – Maunakea MPS 650665
2015 11 17.642893 12 28 47.710 +10 24 00.28 21.6 R 568 – Maunakea MPS 650665
2015 11 17.644563 12 28 48.124 +10 23 59.65 21.6 R 568 – Maunakea MPS 650665
2015 11 17.646198 12 28 48.528 +10 23 59.04 21.6 R 568 – Maunakea MPS 650665
2022 02 20.154808 01 59 33.06 +22 53 52.4 21.23 G I52 – Steward Observatory, Mt. Lemmon Station MPS 1558860
2022 02 20.164044 01 59 34.78 +22 54 16.1 21.37 G I52 – Steward Observatory, Mt. Lemmon Station MPS 1558860
2022 04 04.12638 03 48 33.767 +41 25 43.36 20.7 G G83 – Mt. Graham-LBT MPS 1592135
2022 04 04.12865 03 48 34.043 +41 25 45.30 20.6 G G83 – Mt. Graham-LBT MPS 1592135
2022 04 04.13033 03 48 34.247 +41 25 46.75 20.6 G G83 – Mt. Graham-LBT MPS 1592135
2022 04 04.13200 03 48 34.446 +41 25 48.12 20.6 G G83 – Mt. Graham-LBT MPS 1592135
2022 04 04.13364 03 48 34.647 +41 25 49.46 20.6 G G83 – Mt. Graham-LBT MPS 1592135
2022 04 04.13532 03 48 34.854 +41 25 50.84 20.7 G G83 – Mt. Graham-LBT MPS 1592135
2022 04 04.13693 03 48 35.048 +41 25 52.18 20.8 G G83 – Mt. Graham-LBT MPS 1592135
2022 04 04.13862 03 48 35.247 +41 25 53.64 20.8 G G83 – Mt. Graham-LBT MPS 1592135
2022 04 04.14025 03 48 35.452 +41 25 55.08 20.8 G G83 – Mt. Graham-LBT MPS 1592135
2022 04 04.14188 03 48 35.651 +41 25 56.37 20.7 G G83 – Mt. Graham-LBT MPS 1592135